TJS-15

导读

TJS-15(通信技术试验十五号)是中国于2025年3月9日,在西昌卫星发射中心,通过长征三号乙运载火箭成功发射的通信技术试验卫星,属于中国TJS系列技术试验卫星的最新成员。官方介绍其主要承担多频段、高速卫星通信技术验证任务,该系列卫星多运行于地球静止轨道,外界推测其也可能开展空间技术试验、在轨服务测试等拓展任务。

基本信息
目录编号:
63157
目录名称:
TJS-15
国际标识:
2025-045A
轨道中心:
EARTH
卫星名称:
TJS-15
卫星全名:
TJS-15
卫星状态:
在轨 (已飞行463 天)
发射日期:
2025-03-09 UTC
国别 :
中国 (CN)
星等 :
--
轨道信息
数据来源 国际轨道数据 AOE轨道数据
星历时间 2026-06-15T02:29:35+0800
5小时前
查看轨道信息
2026-06-14T07:00:00+0800
1天前
查看轨道信息
半长轴 42164.644km 42164.42km
偏心率 0.0004664 0.0004656
轨道倾角 0.279° 0.284°
近地点辐角 296.228° 295.756°
升交点赤经 85.534° 85.445°
平近点角 253.092° 320.455°
近地点 35766.841km 35766.651km
远地点 35806.173km 35805.915km
周期 1436.092分钟 1436.081分钟
每日圈数 1.002721 1.002729
详细信息
使用方式:
暂无
2D轨道图
3D轨道图
轨道高度分析图
轨道倾角分析图
轨道综合分析图
查看轨道综合分析图